Flag for Canada Weather past 2 weeks in Rankin Inlet, Nunavut, Canada

-22 °F

Snow flurries. Passing clouds.

Feels Like: -42 °F
Forecast: -26 / -19 °F
Wind: 9 mph from North

Location: Rankin Inlet

Current Time: Nov 28, 2015 at 11:06:42 AM

Latest Report: Nov 28, 2015 at 10:00 AM

Visibility: 15 mi

Pressure: 30.29 "Hg

Humidity: 68%

Dew point: -29 °F

Location of Rankin InletLocation

Historic Weather in Rankin Inlet — Graph


Rankin Inlet temperature yesterday

Maximum temperature yesterday: -20 °F (at 8:00 AM)
Minimum temperature yesterday: -27 °F (at 12:00 AM)
Average temperature yesterday: -24 °F

Past Weeks' High & Low Weather Summary

High30 °F (Nov 17, 4:00 AM)100% (Nov 15, 10:00 PM)30.29 "Hg (Nov 15, 10:00 PM)
Low-29 °F (Nov 26, 8:00 PM)67% (Nov 26, 6:00 AM)29.18 "Hg (Nov 18, 5:00 AM)
Average-1 °F79%29.92 "Hg
* Reported Nov 13 10:00 AM — Nov 28 10:00 AM, Rankin Inlet, Weather by CustomWeather, © 2015

Note: Actual official high and low records may vary slightly from our data, if they occured in-between our weather recording intervals... More about our weather records


Rankin Inlet weather history for previous 24 hours

Time TempWeatherWind HumidityBarometerVisibility
10:00 AM
Sat, Nov 28
-22 °FSnow flurries. Passing clouds.9 mph68%30.29 "Hg15 mi
9:00 AM-24 °FSnow flurries. Passing clouds.6 mph75%30.29 "Hg15 mi
8:00 AM-22 °FSnow flurries. Clear.8 mph68%30.28 "Hg15 mi
7:00 AM-24 °FSnow flurries. Clear.9 mph68%30.27 "Hg15 mi
6:00 AM-22 °FSnow flurries. Clear.14 mph68%30.27 "Hg15 mi
5:00 AM-24 °FSnow flurries. Clear.10 mph68%30.27 "Hg15 mi
4:00 AM-24 °FSnow flurries. Clear.12 mph68%30.27 "Hg15 mi
3:00 AM-26 °FSnow flurries. Clear.13 mph75%30.26 "Hg15 mi
2:00 AM-22 °FSnow flurries. Clear.5 mph68%30.25 "Hg15 mi
1:00 AM-24 °FSnow flurries. Clear.12 mph68%30.25 "Hg15 mi
12:00 AM-24 °FSnow flurries. Clear.15 mph68%30.25 "Hg15 mi
11:00 PM
Fri, Nov 27
-24 °FSnow flurries. Clear.17 mph68%30.23 "Hg10 mi
10:00 PM-26 °FSnow flurries. Clear.16 mph75%30.22 "Hg8 mi
9:00 PM-24 °FSnow flurries. Clear.21 mph68%30.21 "Hg6 mi
8:00 PM-24 °FSnow flurries. Clear.20 mph68%30.21 "Hg10 mi
7:00 PM-24 °FSnow flurries. Clear.13 mph68%30.21 "Hg6 mi
6:00 PM-26 °FSnow flurries. Clear.14 mph75%30.22 "Hg2 mi
5:00 PM-24 °FSnow flurries. Clear.12 mph68%30.21 "Hg2 mi
4:00 PM-26 °FSnow flurries. Clear.7 mph75%30.22 "Hg2 mi
3:00 PM-24 °FSnow flurries. Clear.10 mph68%30.20 "Hg1 mi
2:00 PM-24 °FSnow flurries. Sunny.14 mph68%30.19 "Hg1 mi
1:00 PM-22 °FSnow flurries. Sunny.20 mph68%30.16 "Hg1 mi
12:04 PM-24 °FSnow flurries. Passing clouds.13 mph68%30.16 "Hg1 mi
11:00 AM-24 °FSnow flurries. Passing clouds.17 mph68%30.16 "Hg10 mi
Weather by CustomWeather, © 2015

See weather overviewHow to use our weather pages